Location: Aurora Center
(43.5271°N, 98.5894°W)
Time: 01:17:06
(UTC-05:00)

BlueWalker 3 - Pass Details

Date: 23 June 2024
Orbit: 480 x 492 km, 53.2° (Epoch: 15 July)

Event Time Altitude Azimuth Distance (km) Brightness Sun altitude
Rises 02:15:41 0° 307° (NW) 2,539 5.9 -22.5°
Reaches altitude 10° 02:18:00 10° 318° (NW) 1,658 5.0 -22.4°
Maximum altitude 02:21:25 33° 23° (NNE) 831 3.6 -22.3°
Drops below altitude 10° 02:24:49 10° 89° (E) 1,653 4.7 -22.1°
Sets 02:27:08 0° 100° (E) 2,532 5.5 -22.1°
